sat.trackr.live / text

‹ back to catalog

STARLINK-36158

NORAD 67080 · 2025-298F

PAYLOAD ACTIVE UNKNOWN

§ Identity

Operator
Country
US
Launch date
2025-12-14
Launch site
AFWTR
Launch vehicle
Mass (kg)
RCS (m²)

Purposes: comms

External: N2YO · Heavens-Above · Gunter

§ Orbital elements

Epoch: 2026-05-25T03:25:14.471040Z

Period
96.11 min
Inclination
70.0014°
Eccentricity
0.0003127
Mean motion
14.98328829 rev/d
Perigee alt
569.9 km
Apogee alt
574.2 km
Semi-major
6,950.2 km
B*
2.8866e-4
RAAN
181.5177°
Arg perigee
269.6439°
Mean anomaly
90.4362°
Rev number
2,467

§ Raw data

STARLINK-361581 67080U 25298F   26145.14252860  .00003353  00000+0  28866-3 0  99992 67080  70.0014 181.5177 0003127 269.6439  90.4362 14.98328829 24674

JSON: /api/v1/satellites/67080 · /tle

For live sub-satellite position, see the globe view (requires WebGL).

§ Visibility from observer

Set your observer location to see the next 7 days of passes ≥ 10°. The values pass through the URL so the page stays shareable.

No JS? Fill the form by hand. The geolocation button needs JavaScript.